Faribault, MN

9:02 PM CDT on August 18, 2017 (GMT -0500)
Faribault Municipal

Weather History for KFBL - April, 2013

Change the Weather History Date:

Monday, April 29, 2013

  Actual Average Record
Temperature  
Mean Temperature 60 °F -  
Max Temperature 73 °F 64 °F 88 °F (1952)
Min Temperature 48 °F 39 °F 23 °F (1958)
Degree Days  
Heating Degree Days 4    
Growing Degree Days 10 (Base 50)    
Moisture  
Dew Point 52 °F    
Average Humidity 75    
Maximum Humidity 100    
Minimum Humidity 50    
Precipitation  
Precipitation 0.00 in - - ()
Sea Level Pressure  
Sea Level Pressure 29.72 in    
Wind  
Wind Speed 6 mph (ESE)    
Max Wind Speed 13 mph    
Max Gust Speed 16 mph    
Visibility 10 miles    
Events      
Averages and records for this station are not official NWS values.
T = Trace of Precipitation, MM = Missing Value Source: NWS Daily Summary

Daily Weather History Graph

Daily Weather History Graph

Search for Another Location

Airport or City:

Trip Planner

Search our weather history database for the weather conditions in past years. The results will help you decide how hot, cold, wet, or windy it might be!

Date:

Astronomy

Apr. 29, 2013 Rise Set
Actual Time 6:06 AM CDT 8:15 PM CDT
Civil Twilight 5:34 AM CDT 8:46 PM CDT
Nautical Twilight 4:55 AM CDT 9:26 PM CDT
Astronomical Twilight 4:12 AM CDT 10:09 PM CDT
Moon No Moon Rise 9:24 AM CDT (4/29)
Length of Visible Light 15h 12m
Length of Day
14h 08m
Waning Gibbous, 80% of the Moon is Illuminated
Apr 29
Waning Gibbous
May 2
Last Quarter
May 9
New
May 17
First Quarter
May 24
Full

Hourly Weather History & Observations

Time (CDT) Temp. Dew Point Humidity Pressure Visibility Wind Dir Wind Speed Gust Speed Precip Events Conditions
12:08 AM 57.2 °F 51.8 °F 82% 29.77 in 10.0 mi North 5.8 mph - N/A   Overcast
12:21 AM 57.2 °F 51.8 °F 82% 29.77 in 10.0 mi NNE 4.6 mph - N/A   Overcast
1:01 AM 55.4 °F 53.6 °F 94% 29.78 in 10.0 mi SE 1.2 mph - N/A   Overcast
1:21 AM 55.4 °F 53.6 °F 94% 29.78 in 10.0 mi SSE 2.3 mph - N/A   Scattered Clouds
1:41 AM 53.6 °F 53.6 °F 100% 29.79 in 10.0 mi South 3.5 mph - N/A   Clear
2:01 AM 53.6 °F 53.6 °F 100% 29.79 in 10.0 mi SSW 4.6 mph - N/A   Clear
2:27 AM 53.6 °F 53.6 °F 100% 29.79 in 10.0 mi WSW 4.6 mph - N/A   Mostly Cloudy
2:49 AM 53.6 °F 53.6 °F 100% 29.80 in 10.0 mi West 1.2 mph - N/A   Mostly Cloudy
3:09 AM 53.6 °F 53.6 °F 100% 29.80 in 10.0 mi West 2.3 mph - N/A   Scattered Clouds
3:24 AM 53.6 °F 51.8 °F 94% 29.80 in 10.0 mi WSW 2.3 mph - N/A   Scattered Clouds
3:47 AM 53.6 °F 51.8 °F 94% 29.79 in 10.0 mi West 3.5 mph - N/A   Clear
4:11 AM 51.8 °F 51.8 °F 100% 29.79 in 10.0 mi West 4.6 mph - N/A   Clear
4:21 AM 51.8 °F 51.8 °F 100% 29.79 in 10.0 mi West 4.6 mph - N/A   Clear
4:55 AM 50.0 °F 50.0 °F 100% 29.79 in 10.0 mi NNW 3.5 mph - N/A   Scattered Clouds
5:01 AM 51.8 °F 51.8 °F 100% 29.79 in 10.0 mi NNW 4.6 mph - N/A   Scattered Clouds
5:22 AM 51.8 °F 50.0 °F 94% 29.80 in 10.0 mi NW 6.9 mph - N/A   Clear
5:41 AM 51.8 °F 48.2 °F 88% 29.80 in 10.0 mi NNW 3.5 mph - N/A   Clear
6:01 AM 50.0 °F 48.2 °F 94% 29.80 in 10.0 mi NNW 3.5 mph - N/A   Clear
6:21 AM 48.2 °F 48.2 °F 100% 29.80 in 10.0 mi North 2.3 mph - N/A   Clear
6:41 AM 48.2 °F 48.2 °F 100% 29.81 in 10.0 mi NNW 4.6 mph - N/A   Clear
7:01 AM 48.2 °F 48.2 °F 100% 29.81 in 10.0 mi North 2.3 mph - N/A   Clear
7:21 AM 51.8 °F 48.2 °F 88% 29.81 in 10.0 mi North 5.8 mph - N/A   Clear
7:42 AM 53.6 °F 48.2 °F 82% 29.81 in 10.0 mi North 6.9 mph - N/A   Clear
8:01 AM 53.6 °F 44.6 °F 72% 29.81 in 10.0 mi North 9.2 mph - N/A   Clear
8:21 AM 53.6 °F 44.6 °F 72% 29.81 in 10.0 mi North 9.2 mph - N/A   Clear
8:41 AM 53.6 °F 44.6 °F 72% 29.81 in 10.0 mi North 10.4 mph - N/A   Clear
9:01 AM 53.6 °F 44.6 °F 72% 29.80 in 10.0 mi North 12.7 mph - N/A   Clear
9:21 AM 53.6 °F 44.6 °F 72% 29.80 in 10.0 mi North 10.4 mph - N/A   Clear
9:41 AM 55.4 °F 44.6 °F 67% 29.80 in 10.0 mi NNE 9.2 mph - N/A   Clear
10:01 AM 55.4 °F 44.6 °F 67% 29.80 in 10.0 mi NNE 4.6 mph - N/A   Clear
10:21 AM 57.2 °F 46.4 °F 67% 29.80 in 10.0 mi ENE 4.6 mph - N/A   Clear
10:41 AM 57.2 °F 46.4 °F 67% 29.79 in 10.0 mi East 3.5 mph - N/A   Clear
11:01 AM 59.0 °F 48.2 °F 67% 29.78 in 10.0 mi East 4.6 mph - N/A   Clear
11:21 AM 60.8 °F 48.2 °F 63% 29.77 in 10.0 mi South 1.2 mph - N/A   Clear
11:46 AM 62.6 °F 48.2 °F 59% 29.76 in 10.0 mi East 5.8 mph - N/A   Clear
12:01 PM 62.6 °F 50.0 °F 63% 29.76 in 10.0 mi ESE 5.8 mph - N/A   Clear
12:21 PM 64.4 °F 51.8 °F 64% 29.76 in 10.0 mi ESE 6.9 mph - N/A   Clear
12:57 PM 64.4 °F 53.6 °F 68% 29.74 in 10.0 mi East 4.6 mph - N/A   Clear
1:01 PM 64.4 °F 53.6 °F 68% 29.73 in 10.0 mi ESE 5.8 mph - N/A   Clear
1:21 PM 66.2 °F 53.6 °F 64% 29.73 in 10.0 mi SE 6.9 mph - N/A   Clear
1:48 PM 68.0 °F 53.6 °F 60% 29.72 in 10.0 mi ENE 6.9 mph - N/A   Clear
2:03 PM 68.0 °F 53.6 °F 60% 29.71 in 10.0 mi ENE 5.8 mph - N/A   Clear
2:21 PM 69.8 °F 53.6 °F 56% 29.70 in 7.0 mi ESE 6.9 mph - N/A   Clear
2:55 PM 69.8 °F 55.4 °F 60% 29.69 in 10.0 mi East 8.1 mph - N/A   Mostly Cloudy
3:01 PM 69.8 °F 53.6 °F 56% 29.68 in 10.0 mi NE 6.9 mph - N/A   Mostly Cloudy
3:21 PM 69.8 °F 55.4 °F 60% 29.67 in 10.0 mi East 6.9 mph - N/A   Scattered Clouds
3:41 PM 71.6 °F 55.4 °F 57% 29.67 in 10.0 mi South 8.1 mph - N/A   Scattered Clouds
4:01 PM 71.6 °F 55.4 °F 57% 29.66 in 10.0 mi ESE 5.8 mph - N/A   Mostly Cloudy
4:21 PM 71.6 °F 55.4 °F 57% 29.65 in 10.0 mi ESE 10.4 mph - N/A   Mostly Cloudy
4:41 PM 73.4 °F 55.4 °F 53% 29.64 in 10.0 mi SW 4.6 mph - N/A   Scattered Clouds
5:01 PM 73.4 °F 53.6 °F 50% 29.64 in 10.0 mi South 9.2 mph - N/A   Scattered Clouds
5:21 PM 73.4 °F 55.4 °F 53% 29.63 in 10.0 mi SSE 9.2 mph - N/A   Scattered Clouds
5:41 PM 73.4 °F 53.6 °F 50% 29.63 in 10.0 mi South 11.5 mph - N/A   Scattered Clouds
6:01 PM 73.4 °F 57.2 °F 57% 29.62 in 10.0 mi SE 8.1 mph - N/A   Mostly Cloudy
6:21 PM 71.6 °F 55.4 °F 57% 29.62 in 10.0 mi SSE 11.5 mph - N/A   Scattered Clouds
6:41 PM 71.6 °F 57.2 °F 60% 29.61 in 10.0 mi SSE 9.2 mph - N/A   Scattered Clouds
7:01 PM 71.6 °F 57.2 °F 60% 29.60 in 10.0 mi SSE 10.4 mph - N/A   Mostly Cloudy
7:21 PM 69.8 °F 57.2 °F 64% 29.60 in 10.0 mi SE 9.2 mph - N/A   Scattered Clouds
7:41 PM 69.8 °F 57.2 °F 64% 29.60 in 10.0 mi SE 10.4 mph 16.1 mph N/A   Scattered Clouds
8:01 PM 68.0 °F 57.2 °F 68% 29.60 in 10.0 mi SE 9.2 mph - N/A   Scattered Clouds
8:21 PM 66.2 °F 57.2 °F 73% 29.60 in 10.0 mi SE 8.1 mph - N/A   Clear
8:41 PM 66.2 °F 57.2 °F 73% 29.61 in 10.0 mi SE 8.1 mph - N/A   Clear
9:01 PM 64.4 °F 57.2 °F 77% 29.62 in 10.0 mi SE 6.9 mph - N/A   Clear
9:21 PM 64.4 °F 57.2 °F 77% 29.61 in 10.0 mi SE 8.1 mph - N/A   Clear
9:53 PM 64.4 °F 57.2 °F 77% 29.61 in 10.0 mi ESE 6.9 mph - N/A   Clear
10:21 PM 62.6 °F 57.2 °F 82% 29.60 in 10.0 mi SE 8.1 mph - N/A   Clear
10:41 PM 62.6 °F 57.2 °F 82% 29.59 in 10.0 mi SE 10.4 mph - N/A   Clear
11:05 PM 62.6 °F 57.2 °F 82% 29.58 in 10.0 mi SE 9.2 mph - N/A   Clear
11:21 PM 62.6 °F 57.2 °F 82% 29.58 in 10.0 mi SE 10.4 mph - N/A   Clear
11:41 PM 62.6 °F 57.2 °F 82% 29.57 in 10.0 mi SE 12.7 mph - N/A   Clear